Regional Weather Roundup
Issued by NWS

Home | Current Version | Previous Version | Text Only | Print | Product List | Glossary Off
Versions: 1 2 3 4 5 6 7 8 9 10 11 12 13 14 15 16 17 18 19 20 21 22 23 24 25 26 27 28 29 30 31 32 33 34 35 36 37 38 39 40 41 42 43 44 45 46 47 48 49 50

000
ASUS45 KBOU 240307
RWRCO

WEATHER ROUNDUP FOR COLORADO
NATIONAL WEATHER SERVICE DENVER/BOULDER CO
900 PM MDT SUN APR 23 2017

NOTE: "FAIR" INDICATES FEW OR NO CLOUDS BELOW 12000 FEET WITH NO
SIGNIFICANT WEATHER AND/OR OBSTRUCTIONS TO VISIBILITY.

COZ001>005-013-030-031-240400-
...NORTHWEST COLORADO...

CITY           SKY/WX    TMP DP  RH WIND       PRES   REMARKS
CRAIG          FAIR      50  32  50 SW8       29.76R
HAYDEN         FAIR      54  27  35 S5        29.78S
MEEKER         FAIR      57  27  31 CALM      29.77S
MOUNT WERNER   NOT AVBL
STEAMBOAT SPGS FAIR      51  29  43 SE6       29.80R
WALDEN           N/A     50  27  40 SW3       29.87S
$$

COZ006>008-011-240400-
...WEST CENTRAL VALLEYS...

CITY           SKY/WX    TMP DP  RH WIND       PRES   REMARKS
GRAND JUNCTION FAIR      64  23  21 E6        29.67F
MONTROSE       FAIR      60  20  21 S7        29.77F
EAGLE          FAIR      59  20  22 SW6       29.82R
RIFLE          FAIR      63  24  22 CALM      29.72F
DELTA          FAIR      68  18  14 CALM      29.72S
NUCLA          FAIR      64  10  12 S5        29.80S
$$

COZ017>023-064>068-240400-
...SOUTHWEST COLORADO...

CITY           SKY/WX    TMP DP  RH WIND       PRES   REMARKS
DURANGO        FAIR      57  23  26 SW5       29.89R
CORTEZ         FAIR      59  21  23 S10       29.82S
PAGOSA SPRINGS FAIR      51  29  43 CALM      29.95R
TELLURIDE      FAIR      54  17  23 CALM      30.01S
WOLF CREEK PAS MOCLDY    36  19  51 S15G23    30.20R
$$

COZ009-010-012-014-032>034-037-058>063-240400-
...CENTRAL COLORADO...

CITY           SKY/WX    TMP DP  RH WIND       PRES   REMARKS
ASPEN          FAIR      52  19  27 CALM      29.85F
BUENA VISTA    FAIR      56  13  18 SW9       29.91R
COPPER MTN     FAIR      41  10  28 W18G28    30.12R
BERTHOUD PASS  FAIR      34  23  64 W23G30    30.10S WCI  22
COTTONWOOD PAS FAIR      52   7  16 W12       30.02R
GUNNISON       FAIR      51  20  29 NE5       29.90F
KREMMLING      FAIR      61  18  18 SW10G28   29.84R
LEADVILLE      FAIR      46  11  24 W13G22    30.00R
MONARCH PASS   FAIR      36  14  41 SW21G26   30.23R
SALIDA         FAIR      58  14  17 W5        29.97R
SUNLIGHT       FAIR      37  19  48 SW8G21    30.04S
WILKERSON PASS FAIR      41  18  38 SW12G18   30.09R
$$

COZ069>075-240400-
...SAN LUIS VALLEY/SANGRE DE CRISTO MOUNTAINS...

CITY           SKY/WX    TMP DP  RH WIND       PRES   REMARKS
ALAMOSA        FAIR      53  25  33 S9        29.91R
LA VETA PASS   FAIR      45  21  39 S23G51    30.11F
SAGUACHE       FAIR      52  19  28 W5        29.93R
$$

COZ035-036-038>040-240400-
...NORTHERN COLORADO FRONT RANGE...

CITY           SKY/WX    TMP DP  RH WIND       PRES   REMARKS
DENVER INTL AP MOCLDY    63  36  36 SW9       29.68S
DMNS CITY PARK   N/A     62  38  40 N6        29.69S
AURORA         MOCLDY    61  36  38 S13       29.71R
FRONT RANGE AP MOCLDY    64  34  32 S16       29.70R
ERIE MUNI ARPT FAIR      56  41  57 CALM      29.69R
BOULDER MUN AP FAIR      61  39  44 SE5       29.70R
CENTENNIAL     MOCLDY    57  34  41 SW7       29.72R
BROOMFIELD     MOCLDY    63  37  39 NW12      29.70
FORT COLLINS   FAIR      57  41  55 N9        29.69S
LONGMONT       FAIR      60  41  50 N3        29.70S
$$

COZ041-046-047-076>085-087-088-240400-
...PIKES PEAK/PALMER DIVIDE AND SOUTHERN FOOTHILLS...

CITY           SKY/WX    TMP DP  RH WIND       PRES   REMARKS
COLO. SPRINGS  FAIR      59  36  42 S3        29.79S
A. F. ACADEMY  FAIR      54  35  48 E7        29.79S
SCHRIEVER AFB  FAIR      55  36  49 S5        29.79S
ELLICOTT       FAIR     N/A N/A N/A S10       29.77S
FALCON         FAIR      52  33  48 SW7       29.83S
FORT CARSON    FAIR      59  35  39 W9        29.76S
LIMON          FAIR      52  39  61 SE6       29.73S
MONUMENT HILL  FAIR      50  32  50 S14       29.82R
TRINIDAD       FAIR      64  25  22 SW10      29.79S
$$

COZ042>045-048>051-090-091-240400-
...NORTHEAST COLORADO...

CITY           SKY/WX    TMP DP  RH WIND       PRES   REMARKS
GREELEY ARPT   NOT AVBL
AKRON          FAIR      56  39  53 SE12      29.69F
BURLINGTON     NOT AVBL
WRAY           NOT AVBL
STERLING       FAIR      55  41  58 S6        29.65F
HOLYOKE        FAIR      57  43  58 SE9       29.71S
FORT MORGAN    FAIR      57  36  46 E10       29.68S
$$

COZ086-089-092>099-240400-
...SOUTHEAST COLORADO...

CITY           SKY/WX    TMP DP  RH WIND       PRES   REMARKS
PUEBLO         FAIR      58  46  64 VRB5      29.69R
LA JUNTA       FAIR      68  39  34 S9        29.68S
LAMAR          FAIR      67  36  31 S22       29.69R
SPRINGFIELD      N/A     60  36  40 S23       29.80S
$$



USA.gov is the U.S. government's official web portal to all federal, state and local government web resources and services.